Lakeview, OR

7:35 AM PDT on October 01, 2016 (GMT -0700)
Lake County

Weather History for KLKV - June, 2013

Change the Weather History Date:

Thursday, June 20, 2013

  Actual Average Record
Temperature  
Mean Temperature 43 °F -  
Max Temperature 62 °F 77 °F 92 °F (1959)
Min Temperature 24 °F 46 °F 24 °F (2013)
Degree Days  
Heating Degree Days 22    
Moisture  
Dew Point 30 °F    
Average Humidity 61    
Maximum Humidity 100    
Minimum Humidity 30    
Precipitation  
Precipitation 0.00 in - - ()
Sea Level Pressure  
Sea Level Pressure 30.08 in    
Wind  
Wind Speed 5 mph (WNW)    
Max Wind Speed 34 mph    
Max Gust Speed 38 mph    
Visibility 10 miles    
Events      
Averages and records for this station are not official NWS values.
T = Trace of Precipitation, MM = Missing Value Source: NWS Daily Summary

Daily Weather History Graph

Daily Weather History Graph

Search for Another Location

Airport or City:

Trip Planner

Search our weather history database for the weather conditions in past years. The results will help you decide how hot, cold, wet, or windy it might be!

Date:

Astronomy

Jun. 20, 2013 Rise Set
Actual Time 5:25 AM PDT 8:41 PM PDT
Civil Twilight 4:50 AM PDT 9:15 PM PDT
Nautical Twilight 4:06 AM PDT 10:00 PM PDT
Astronomical Twilight 3:11 AM PDT 10:54 PM PDT
Moon 5:47 PM PDT (6/20) 2:58 AM PDT (6/20)
Length of Visible Light 16h 25m
Length of Day
15h 15m
Waxing Gibbous, 89% of the Moon is Illuminated
Jun 20
Waxing Gibbous
Jun 23
Full
Jun 29
Last Quarter
Jul 8
New
Jul 15
First Quarter

Hourly Weather History & Observations

Time (PDT) Temp. Windchill Dew Point Humidity Pressure Visibility Wind Dir Wind Speed Gust Speed Precip Events Conditions
12:15 AM 32.0 °F 27.5 °F 26.6 °F 80% 30.11 in 10.0 mi SE 4.6 mph - N/A   Clear
12:35 AM 32.0 °F - 30.2 °F 93% 30.11 in 10.0 mi Calm Calm - N/A   Clear
12:55 AM 33.8 °F 30.8 °F 30.2 °F 87% 30.11 in 10.0 mi SE 3.5 mph - N/A   Clear
1:15 AM 32.0 °F - 26.6 °F 80% 30.11 in 10.0 mi Calm Calm - N/A   Clear
1:35 AM 30.2 °F - 26.6 °F 86% 30.11 in 10.0 mi Calm Calm - N/A   Clear
1:55 AM 30.2 °F - 26.6 °F 86% 30.11 in 10.0 mi Calm Calm - N/A   Clear
2:15 AM 28.4 °F 22.2 °F 24.8 °F 86% 30.11 in 10.0 mi NNW 5.8 mph - N/A   Clear
2:35 AM 28.4 °F 20.4 °F 24.8 °F 86% 30.10 in 10.0 mi North 8.1 mph - N/A   Clear
2:55 AM 28.4 °F 22.2 °F 26.6 °F 93% 30.09 in 10.0 mi North 5.8 mph - N/A   Clear
3:15 AM 28.4 °F 22.2 °F 24.8 °F 86% 30.09 in 10.0 mi NW 5.8 mph - N/A   Clear
3:35 AM 28.4 °F 22.2 °F 26.6 °F 93% 30.10 in 10.0 mi NNW 5.8 mph - N/A   Clear
3:55 AM 26.6 °F 20.0 °F 26.6 °F 100% 30.09 in 10.0 mi NNW 5.8 mph - N/A   Clear
4:15 AM 26.6 °F 19.1 °F 23.0 °F 86% 30.09 in 10.0 mi North 6.9 mph - N/A   Clear
4:35 AM 24.8 °F 16.9 °F 21.2 °F 86% 30.09 in 10.0 mi NW 6.9 mph - N/A   Clear
4:55 AM 24.8 °F 16.9 °F 23.0 °F 93% 30.09 in 10.0 mi NNW 6.9 mph - N/A   Clear
5:15 AM 24.8 °F 17.9 °F 21.2 °F 86% 30.09 in 10.0 mi North 5.8 mph - N/A   Clear
5:35 AM 26.6 °F 21.2 °F 26.6 °F 100% 30.09 in 10.0 mi North 4.6 mph - N/A   Clear
5:55 AM 26.6 °F 20.0 °F 23.0 °F 86% 30.09 in 10.0 mi NNW 5.8 mph - N/A   Clear
6:15 AM 28.4 °F 23.3 °F 26.6 °F 93% 30.09 in 10.0 mi WNW 4.6 mph - N/A   Clear
6:35 AM 30.2 °F - 28.4 °F 93% 30.09 in 10.0 mi Calm Calm - N/A   Clear
6:55 AM 35.6 °F - 30.2 °F 81% 30.09 in 10.0 mi Calm Calm - N/A   Clear
7:15 AM 37.4 °F - 30.2 °F 75% 30.09 in 10.0 mi Calm Calm - N/A   Clear
7:35 AM 37.4 °F - 32.0 °F 81% 30.09 in 10.0 mi Calm Calm - N/A   Clear
7:55 AM 41.0 °F - 33.8 °F 76% 30.09 in 10.0 mi Calm Calm - N/A   Clear
8:15 AM 44.6 °F - 33.8 °F 66% 30.09 in 10.0 mi Calm Calm - N/A   Clear
8:35 AM 44.6 °F - 33.8 °F 66% 30.09 in 10.0 mi Calm Calm - N/A   Clear
8:55 AM 48.2 °F - 35.6 °F 62% 30.08 in 10.0 mi South 5.8 mph - N/A   Clear
9:15 AM 48.2 °F - 33.8 °F 58% 30.08 in 10.0 mi SW 4.6 mph - N/A   Clear
9:35 AM 50.0 °F - 33.8 °F 54% 30.08 in 10.0 mi South 5.8 mph - N/A   Scattered Clouds
9:55 AM 51.8 °F - 33.8 °F 50% 30.07 in 10.0 mi South 4.6 mph - N/A   Scattered Clouds
10:15 AM 51.8 °F - 33.8 °F 50% 30.07 in 10.0 mi South 6.9 mph - N/A   Clear
10:35 AM 53.6 °F - 33.8 °F 47% 30.07 in 10.0 mi South 6.9 mph - N/A   Scattered Clouds
10:55 AM 53.6 °F - 33.8 °F 47% 30.07 in 10.0 mi SSE 6.9 mph - N/A   Mostly Cloudy
11:15 AM 55.4 °F - 33.8 °F 44% 30.07 in 10.0 mi South 8.1 mph - N/A   Partly Cloudy
11:35 AM 57.2 °F - 33.8 °F 41% 30.06 in 10.0 mi South 9.2 mph - N/A   Clear
11:55 AM 57.2 °F - 33.8 °F 41% 30.06 in 10.0 mi WSW 9.2 mph 17.3 mph N/A   Scattered Clouds
12:15 PM 57.2 °F - 33.8 °F 41% 30.06 in 10.0 mi South 6.9 mph - N/A   Mostly Cloudy
12:35 PM 57.2 °F - 32.0 °F 38% 30.05 in 10.0 mi SSE 6.9 mph - N/A   Scattered Clouds
12:55 PM 59.0 °F - 33.8 °F 39% 30.05 in 10.0 mi SSE 5.8 mph - N/A   Mostly Cloudy
1:15 PM 60.8 °F - 30.2 °F 31% 30.05 in 10.0 mi West 6.9 mph 16.1 mph N/A   Mostly Cloudy
1:35 PM 59.0 °F - 30.2 °F 34% 30.04 in 10.0 mi South 6.9 mph - N/A   Overcast
1:55 PM 60.8 °F - 33.8 °F 36% 30.04 in 10.0 mi South 8.1 mph - N/A   Overcast
2:15 PM 62.6 °F - 30.2 °F 30% 30.04 in 10.0 mi West 13.8 mph 18.4 mph N/A   Overcast
2:35 PM 62.6 °F - 30.2 °F 30% 30.04 in 10.0 mi West 12.7 mph 16.1 mph N/A   Overcast
2:55 PM 60.8 °F - 30.2 °F 31% 30.04 in 10.0 mi West 5.8 mph - N/A   Overcast
3:15 PM 60.8 °F - 30.2 °F 31% 30.03 in 10.0 mi SW 8.1 mph - N/A   Overcast
3:35 PM 60.8 °F - 30.2 °F 31% 30.03 in 10.0 mi West 8.1 mph - N/A   Overcast
3:55 PM 60.8 °F - 30.2 °F 31% 30.03 in 10.0 mi West 9.2 mph - N/A   Mostly Cloudy
4:15 PM 62.6 °F - 32.0 °F 32% 30.03 in 10.0 mi West 12.7 mph - N/A   Mostly Cloudy
4:35 PM 60.8 °F - 30.2 °F 31% 30.04 in 10.0 mi West 16.1 mph - N/A   Partly Cloudy
4:55 PM 57.2 °F - 28.4 °F 33% 30.06 in 10.0 mi West 34.5 mph 38.0 mph N/A   Mostly Cloudy
5:15 PM 51.8 °F - 35.6 °F 54% 30.06 in 10.0 mi SE 6.9 mph 25.3 mph N/A   Mostly Cloudy
5:35 PM 53.6 °F - 32.0 °F 44% 30.07 in 10.0 mi WNW 5.8 mph - N/A   Partly Cloudy
5:55 PM 55.4 °F - 33.8 °F 44% 30.08 in 10.0 mi NW 24.2 mph 28.8 mph N/A   Clear
6:15 PM 53.6 °F - 30.2 °F 41% 30.06 in 10.0 mi NW 11.5 mph 19.6 mph N/A   Clear
6:35 PM 57.2 °F - 26.6 °F 31% 30.07 in 10.0 mi NW 13.8 mph - N/A   Partly Cloudy
6:55 PM 55.4 °F - 30.2 °F 38% 30.07 in 10.0 mi NNW 11.5 mph - N/A   Mostly Cloudy
7:15 PM 57.2 °F - 30.2 °F 36% 30.08 in 10.0 mi NW 6.9 mph - N/A   Overcast
7:35 PM 53.6 °F - 32.0 °F 44% 30.09 in 10.0 mi NNW 4.6 mph - N/A   Scattered Clouds
7:55 PM 53.6 °F - 32.0 °F 44% 30.09 in 10.0 mi Calm Calm - N/A   Clear
8:15 PM 51.8 °F - 33.8 °F 50% 30.09 in 10.0 mi Calm Calm - N/A   Clear
8:35 PM 53.6 °F - 33.8 °F 47% 30.09 in 10.0 mi NW 4.6 mph - N/A   Clear
8:55 PM 46.4 °F 42.9 °F 33.8 °F 62% 30.10 in 10.0 mi North 6.9 mph - N/A   Clear
9:15 PM 44.6 °F 43.1 °F 33.8 °F 66% 30.10 in 10.0 mi ENE 3.5 mph - N/A   Clear
9:35 PM 42.8 °F 41.1 °F 30.2 °F 61% 30.11 in 10.0 mi North 3.5 mph - N/A   Clear
9:55 PM 37.4 °F 32.8 °F 28.4 °F 70% 30.12 in 10.0 mi NNW 5.8 mph - N/A   Clear
10:15 PM 39.2 °F - 30.2 °F 70% 30.12 in 10.0 mi Calm Calm - N/A   Clear
10:35 PM 39.2 °F 35.9 °F 33.8 °F 81% 30.12 in 10.0 mi WNW 4.6 mph - N/A   Clear
10:55 PM 35.6 °F 28.6 °F 30.2 °F 81% 30.12 in 10.0 mi NNW 9.2 mph - N/A   Clear
11:15 PM 37.4 °F 32.1 °F 30.2 °F 75% 30.12 in 10.0 mi NW 6.9 mph - N/A   Clear
11:35 PM 35.6 °F 31.7 °F 30.2 °F 81% 30.12 in 10.0 mi NW 4.6 mph - N/A   Clear
11:55 PM 35.6 °F 32.8 °F 30.2 °F 81% 30.12 in 10.0 mi WNW 3.5 mph - N/A   Clear